Location: Hylvaty SDH
(49.9612°N, 16.4057°E)
Time: 21:03:38
(UTC+01:00)

Vanguard 1 Rocket - Pass Details

Date: 02 October 2020
Orbit: 656 x 4221 km, 34.3° (Epoch: 30 October)

Event Time Altitude Azimuth Distance (km) Brightness Sun altitude
Rises 15:58:12 0° 192° (SSW) 4,291 11.6 21.8°
Reaches altitude 10° 16:01:49 10° 174° (S) 3,784 11.0 21.4°
Maximum altitude 16:08:24 19° 134° (SE) 3,926 10.6 20.5°
Drops below altitude 10° 16:17:50 10° 97° (E) 5,701 11.1 19.2°
Sets 16:25:22 0° 84° (E) 7,424 11.5 18.2°
